Location: Allen Fire Department Station 4
(33.1073°N, 96.6988°W)
Time: 15:52:07
(UTC+00:00)

Aurora 2 Rocket - Pass Details

Date: 07 July 2022
Orbit: 389 x 1718 km, 25.0° (Epoch: 06 August)

Event Time Altitude Azimuth Distance (km) Brightness Sun altitude
Rises 02:40:53 0° 249° (WSW) 4,985 7.6 -11.7°
Reaches altitude 10° 02:44:29 10° 244° (WSW) 3,962 7.0 -12.3°
Maximum altitude 02:54:32 49° 174° (S) 1,880 4.7 -14.0°
Enters shadow 03:01:10 17° 107° (ESE) 2,823 5.3 -15.0°
